DW4326 Weather Reports


time (UTC)temp
F
wind
direction
speed
knots
gust
knots
rain 1hr
in
rain 24hr
in
rain mn
in
humidity
%
barometer
mb
20260509192105 46 161 0.0 2.6 0.02 0.07 0.07 94 1010.4
20260509190604 46 194 0.0 3.5 0.01 0.06 0.06 93 1010.4
20260509185057 46 155 0.0 2.6 0.02 0.06 0.06 92 1010.5
20260509184326 46 188 0.0 4.3 0.01 0.05 0.05 93 1010.7
20260509182050 46 186 0.9 8.7 0.02 0.05 0.05 92 1010.8
20260509181322 46 177 1.7 9.6 0.02 0.05 0.05 92 1010.8
20260509175046 46 194 1.7 7.8 0.02 0.04 0.04 91 1010.8
20260509173550 46 150 1.7 7.8 0.02 0.04 0.04 91 1011.1
20260509172046 46 170 1.7 6.1 0.02 0.03 0.03 92 1011.1
20260509170544 46 173 1.7 6.1 0.02 0.03 0.03 91 1011.3
20260509165044 46 136 0.9 5.2 0.01 0.02 0.02 91 1011.4
20260509164315 46 177 1.7 7.0 0.01 0.02 0.02 89 1011.6
20260509162042 46 151 0.9 6.1 0.00 0.01 0.01 89 1011.7
20260509160538 46 115 1.7 7.0 0.01 0.01 0.01 87 1011.7
20260509155812 46 177 0.0 3.5 0.01 0.01 0.01 88 1011.9
20260509153533 46 130 0.9 5.2 0.01 0.01 0.01 84 1012.1
20260509152035 47 189 0.0 3.5 0.01 0.01 0.01 82 1012.2
20260509151300 47 175 1.7 7.0 0.00 0.00 0.00 79 1012.1
20260509145028 48 163 2.6 7.8 0.00 0.00 0.00 72 1011.8
20260509143523 49 178 2.6 7.8 0.00 0.00 0.00 69 1011.7
20260509142024 49 153 2.6 9.6 0.00 0.00 0.00 68 1011.8
20260509140523 49 186 2.6 9.6 0.00 0.00 0.00 67 1011.6
20260509135024 49 182 1.7 6.1 0.00 0.00 0.00 66 1011.6
20260509133518 48 355 1.7 7.0 0.00 0.00 0.00 68 1011.7
20260509132020 47 190 1.7 4.3 0.00 0.00 0.00 70 1011.7
20260509130515 45 128 0.9 3.5 0.00 0.00 0.00 73 1011.9
20260509125016 42 119 0.0 0.0 0.00 0.00 0.00 85 1012.0
20260509123512 39 97 0.0 0.0 0.00 0.00 0.00 90 1012.2
20260509122009 35 96 0.0 0.0 0.00 0.00 0.00 94 1012.4
20260509120502 33 96 0.0 0.0 0.00 0.00 0.00 97 1012.7
20260509115001 32 96 0.0 0.0 0.00 0.00 0.00 98 1012.7
20260509113454 30 96 0.0 0.0 0.00 0.00 0.00 97 1012.8
20260509111955 29 96 0.0 0.0 0.00 0.00 0.00 96 1012.9
20260509110453 28 96 0.0 0.0 0.00 0.00 0.00 95 1012.9
20260509104952 28 96 0.0 0.0 0.00 0.00 0.00 95 1013.0
20260509103453 28 95 0.0 0.0 0.00 0.00 0.00 95 1012.9
20260509101950 28 95 0.0 0.0 0.00 0.00 0.00 95 1012.8
20260509101223 28 95 0.0 0.0 0.00 0.00 0.00 94 1012.6
20260509100446 28 95 0.0 0.0 0.00 0.00 0.00 94 1012.4
20260509093445 28 95 0.0 0.0 0.00 0.00 0.00 94 1012.4
20260509091940 28 95 0.0 0.0 0.00 0.00 0.00 93 1012.3
20260509090438 28 95 0.0 0.0 0.00 0.00 0.00 94 1012.2
20260509084932 28 95 0.0 0.0 0.00 0.00 0.00 94 1012.0
20260509083434 28 95 0.0 0.0 0.00 0.00 0.00 93 1012.0
20260509081929 29 95 0.0 0.0 0.00 0.00 0.00 93 1011.6
20260509080430 29 95 0.0 0.0 0.00 0.00 0.00 93 1011.8
20260509074930 29 95 0.0 0.0 0.00 0.00 0.00 93 1011.9
20260509073430 29 95 0.0 0.0 0.00 0.00 0.00 92 1011.9
20260509071930 29 95 0.0 0.0 0.00 0.00 0.00 92 1012.0
20260509070430 30 95 0.0 0.0 0.00 0.00 0.00 92 1012.1
20260509064931 30 95 0.0 0.0 0.00 0.00 0.00 91 1012.1
20260509064157 30 95 0.0 0.0 0.00 0.00 0.00 91 1012.1
20260509061924 31 95 0.0 0.0 0.00 0.00 0.00 91 1012.1
20260509060422 31 95 0.0 0.0 0.00 0.00 0.00 90 1012.1
20260509054923 31 95 0.0 0.0 0.00 0.00 0.00 90 1012.2
20260509053422 32 95 0.0 0.0 0.00 0.00 0.00 89 1012.2
20260509051918 32 95 0.0 0.0 0.00 0.00 0.00 89 1012.0
20260509050418 33 95 0.0 0.0 0.00 0.00 0.00 88 1011.8
20260509045646 33 95 0.0 0.0 0.00 0.00 0.00 88 1011.9
20260509043413 34 95 0.0 0.0 0.00 0.00 0.00 87 1011.7
20260509041914 34 95 0.0 0.0 0.00 0.00 0.00 86 1011.9
20260509040413 35 95 0.0 0.0 0.00 0.00 0.00 85 1011.8
20260509034913 35 95 0.0 0.0 0.00 0.00 0.00 84 1011.7
20260509034145 36 95 0.0 0.0 0.00 0.00 0.00 83 1011.7
20260509031912 37 95 0.0 0.0 0.00 0.00 0.00 82 1011.5
20260509030409 38 128 0.0 0.0 0.00 0.00 0.00 81 1011.5
20260509024909 39 128 0.0 0.0 0.00 0.00 0.00 80 1011.4
20260509023409 40 128 0.0 0.0 0.00 0.00 0.00 79 1011.1
20260509021906 41 128 0.0 0.0 0.00 0.00 0.00 77 1011.0
20260509020406 42 128 0.0 0.0 0.00 0.00 0.00 77 1010.7
20260509014906 42 128 0.0 0.0 0.00 0.00 0.00 75 1010.7
20260509014139 44 128 0.0 0.9 0.00 0.00 0.00 73 1010.5
20260509011907 44 120 0.0 0.0 0.00 0.00 0.00 72 1010.3
20260509010406 45 120 0.0 0.0 0.00 0.00 0.00 67 1010.0
20260509004911 47 120 0.0 0.0 0.00 0.00 0.00 66 1009.2
20260509004906 46 120 0.0 0.0 0.00 0.00 0.00 65 1009.6
20260509001904 47 120 0.0 2.6 0.00 0.00 0.00 61 1009.1
20260509000358 48 307 0.0 2.6 0.00 0.00 0.00 58 1008.8
20260508234856 49 32 0.0 0.0 0.00 0.00 0.00 54 1008.8
20260508233356 50 13 0.0 3.5 0.00 0.00 0.00 53 1008.5
20260508233350 49 13 0.0 0.0 0.00 0.00 0.00 55 1008.7
20260508231114 51 13 0.0 3.5 0.00 0.00 0.00 44 1008.4
20260508224841 51 11 0.9 4.3 0.00 0.00 0.00 42 1008.3
20260508223334 52 12 0.0 2.6 0.00 0.00 0.00 42 1008.3
20260508221835 52 83 0.0 3.5 0.00 0.00 0.00 40 1008.2
20260508220329 52 28 2.6 8.7 0.00 0.00 0.00 36 1008.2
20260508214828 53 355 2.6 8.7 0.00 0.00 0.00 36 1008.0
20260508214054 53 299 0.9 8.7 0.00 0.00 0.00 37 1008.0
20260508211824 53 5 1.7 6.1 0.00 0.00 0.00 37 1008.0
20260508211047 53 276 0.9 8.7 0.00 0.00 0.00 36 1007.8
20260508204817 54 37 1.7 8.7 0.00 0.00 0.00 36 1007.8
20260508203311 54 121 2.6 6.1 0.00 0.00 0.00 38 1007.6
20260508201811 53 296 0.0 3.5 0.00 0.00 0.00 39 1007.5
20260508201036 52 292 1.7 7.0 0.00 0.00 0.00 40 1007.6
20260508194806 52 11 1.7 7.0 0.00 0.00 0.00 40 1007.7
20260508193259 51 42 2.6 8.7 0.00 0.00 0.00 41 1007.8
20260508192529 52 288 2.6 10.4 0.00 0.00 0.00 40 1007.7